Time,TemperatureF,DewpointF,PressureIn,WindDirection,WindDirectionDegrees,WindSpeedMPH,WindSpeedGustMPH,Humidity,HourlyPrecipIn,Conditions,Clouds,dailyrainin,SoftwareType,DateUTC
2013-03-22 00:04:00,23.2,18.0,30.03,WNW,300,0.0,-999.0,79,-99.99,,,0.00,weatherlink.com 1.10,2013-03-22 04:04:00,
2013-03-22 00:19:00,22.5,17.0,30.03,WNW,301,0.0,-999.0,80,-99.99,,,0.00,weatherlink.com 1.10,2013-03-22 04:19:00,
2013-03-22 00:34:00,21.8,17.0,30.03,WNW,300,0.0,-999.0,82,-99.99,,,0.00,weatherlink.com 1.10,2013-03-22 04:34:00,
2013-03-22 00:49:00,21.5,17.0,30.03,WNW,301,0.0,-999.0,83,-99.99,,,0.00,weatherlink.com 1.10,2013-03-22 04:49:00,
2013-03-22 01:05:00,21.3,17.0,30.03,WNW,301,0.0,-999.0,84,-99.99,,,0.00,weatherlink.com 1.10,2013-03-22 05:05:00,
2013-03-22 01:20:00,21.2,17.0,30.03,WNW,300,0.0,-999.0,84,-99.99,,,0.00,weatherlink.com 1.10,2013-03-22 05:20:00,
2013-03-22 01:35:00,21.4,18.0,30.03,WNW,300,0.0,-999.0,85,-99.99,,,0.00,weatherlink.com 1.10,2013-03-22 05:35:00,
2013-03-22 01:50:00,21.3,18.0,30.03,WNW,301,0.0,-999.0,85,-99.99,,,0.00,weatherlink.com 1.10,2013-03-22 05:50:00,
2013-03-22 02:05:00,21.8,18.0,30.03,West,271,0.0,-999.0,84,-99.99,,,0.00,weatherlink.com 1.10,2013-03-22 06:05:00,
2013-03-22 02:20:00,22.0,18.0,30.03,West,270,0.0,-999.0,84,-99.99,,,0.00,weatherlink.com 1.10,2013-03-22 06:20:00,
2013-03-22 02:35:00,21.8,18.0,30.03,West,270,0.0,-999.0,84,-99.99,,,0.00,weatherlink.com 1.10,2013-03-22 06:35:00,
2013-03-22 02:50:00,21.7,18.0,30.03,West,270,0.0,-999.0,85,-99.99,,,0.00,weatherlink.com 1.10,2013-03-22 06:50:00,
2013-03-22 03:05:00,21.7,18.0,30.03,West,270,1.0,-999.0,85,-99.99,,,0.00,weatherlink.com 1.10,2013-03-22 07:05:00,
2013-03-22 03:20:00,22.1,18.0,30.03,West,270,1.0,-999.0,85,-99.99,,,0.00,weatherlink.com 1.10,2013-03-22 07:20:00,
2013-03-22 03:35:00,22.4,18.0,30.03,West,270,0.0,-999.0,84,-99.99,,,0.00,weatherlink.com 1.10,2013-03-22 07:35:00,
2013-03-22 03:50:00,22.2,18.0,30.03,West,269,1.0,-999.0,84,-99.99,,,0.00,weatherlink.com 1.10,2013-03-22 07:50:00,
2013-03-22 04:05:00,22.1,18.0,30.03,West,270,0.0,-999.0,84,-99.99,,,0.00,weatherlink.com 1.10,2013-03-22 08:05:00,
2013-03-22 04:21:00,21.6,18.0,30.03,West,269,0.0,-999.0,84,-99.99,,,0.00,weatherlink.com 1.10,2013-03-22 08:21:00,
2013-03-22 04:36:00,21.4,18.0,30.03,West,270,0.0,-999.0,85,-99.99,,,0.00,weatherlink.com 1.10,2013-03-22 08:36:00,
2013-03-22 05:21:00,21.0,17.0,30.03,West,269,0.0,-999.0,85,-99.99,,,0.00,weatherlink.com 1.10,2013-03-22 09:21:00,
2013-03-22 05:36:00,20.7,17.0,30.03,West,269,0.0,-999.0,86,-99.99,,,0.00,weatherlink.com 1.10,2013-03-22 09:36:00,
2013-03-22 05:51:00,21.1,18.0,30.03,West,269,1.0,-999.0,86,-99.99,,,0.00,weatherlink.com 1.10,2013-03-22 09:51:00,
2013-03-22 06:06:00,20.9,18.0,30.03,West,269,0.0,-999.0,87,-99.99,,,0.00,weatherlink.com 1.10,2013-03-22 10:06:00,
2013-03-22 06:21:00,21.2,18.0,30.04,West,269,0.0,-999.0,87,-99.99,,,0.00,weatherlink.com 1.10,2013-03-22 10:21:00,
2013-03-22 06:36:00,21.4,18.0,30.04,West,269,0.0,-999.0,86,-99.99,,,0.00,weatherlink.com 1.10,2013-03-22 10:36:00,
2013-03-22 06:51:00,21.5,18.0,30.04,West,269,0.0,-999.0,85,-99.99,,,0.00,weatherlink.com 1.10,2013-03-22 10:51:00,
2013-03-22 07:06:00,21.3,18.0,30.04,West,269,0.0,-999.0,86,-99.99,,,0.00,weatherlink.com 1.10,2013-03-22 11:06:00,
2013-03-22 07:21:00,21.2,17.0,30.04,West,269,0.0,-999.0,85,-99.99,,,0.00,weatherlink.com 1.10,2013-03-22 11:21:00,
2013-03-22 07:37:00,21.2,18.0,30.04,West,269,1.0,-999.0,86,-99.99,,,0.00,weatherlink.com 1.10,2013-03-22 11:37:00,
2013-03-22 08:07:00,21.2,18.0,30.04,West,270,1.0,-999.0,86,-99.99,,,0.00,weatherlink.com 1.10,2013-03-22 12:07:00,
2013-03-22 08:22:00,21.6,18.0,30.04,West,270,0.0,-999.0,86,-99.99,,,0.00,weatherlink.com 1.10,2013-03-22 12:22:00,
2013-03-22 08:37:00,22.5,19.0,30.04,West,269,1.0,-999.0,86,-99.99,,,0.00,weatherlink.com 1.10,2013-03-22 12:37:00,
2013-03-22 08:52:00,23.7,19.0,30.04,West,270,0.0,-999.0,83,-99.99,,,0.00,weatherlink.com 1.10,2013-03-22 12:52:00,
2013-03-22 09:07:00,25.0,20.0,30.04,West,270,0.0,-999.0,81,-99.99,,,0.00,weatherlink.com 1.10,2013-03-22 13:07:00,
2013-03-22 09:22:00,26.7,21.0,30.04,West,281,4.0,-999.0,79,-99.99,,,0.00,weatherlink.com 1.10,2013-03-22 13:22:00,
2013-03-22 09:37:00,27.6,21.0,30.04,West,281,1.0,-999.0,77,-99.99,,,0.00,weatherlink.com 1.10,2013-03-22 13:37:00,
2013-03-22 09:52:00,29.1,23.0,30.04,West,266,0.0,-999.0,77,-99.99,,,0.00,weatherlink.com 1.10,2013-03-22 13:52:00,
2013-03-22 10:08:00,30.1,22.0,30.05,NW,317,0.0,-999.0,72,-99.99,,,0.00,weatherlink.com 1.10,2013-03-22 14:08:00,
2013-03-22 10:23:00,29.8,21.0,30.04,West,279,0.0,-999.0,71,-99.99,,,0.00,weatherlink.com 1.10,2013-03-22 14:23:00,
2013-03-22 10:38:00,30.1,21.0,30.04,NW,312,3.0,-999.0,69,-99.99,,,0.00,weatherlink.com 1.10,2013-03-22 14:38:00,
2013-03-22 10:53:00,31.4,21.0,30.04,West,269,8.0,-999.0,66,-99.99,,,0.00,weatherlink.com 1.10,2013-03-22 14:53:00,
2013-03-22 11:08:00,30.9,20.0,30.04,West,279,0.0,-999.0,64,-99.99,,,0.00,weatherlink.com 1.10,2013-03-22 15:08:00,
2013-03-22 11:23:00,31.7,20.0,30.04,WSW,249,7.0,-999.0,62,-99.99,,,0.00,weatherlink.com 1.10,2013-03-22 15:23:00,
2013-03-22 11:38:00,33.2,22.0,30.04,WSW,250,8.0,-999.0,63,-99.99,,,0.00,weatherlink.com 1.10,2013-03-22 15:38:00,
2013-03-22 11:53:00,33.3,20.0,30.04,WNW,288,1.0,-999.0,59,-99.99,,,0.00,weatherlink.com 1.10,2013-03-22 15:53:00,
2013-03-22 12:08:00,33.9,20.0,30.04,WSW,244,6.0,-999.0,58,-99.99,,,0.00,weatherlink.com 1.10,2013-03-22 16:08:00,
2013-03-22 12:23:00,34.4,21.0,30.04,West,267,9.0,-999.0,58,-99.99,,,0.00,weatherlink.com 1.10,2013-03-22 16:23:00,
2013-03-22 12:39:00,35.6,22.0,30.04,SW,235,3.0,-999.0,57,-99.99,,,0.00,weatherlink.com 1.10,2013-03-22 16:39:00,
2013-03-22 12:54:00,35.1,20.0,30.04,WSW,251,9.0,-999.0,55,-99.99,,,0.00,weatherlink.com 1.10,2013-03-22 16:54:00,
2013-03-22 13:09:00,36.1,21.0,30.04,West,269,1.0,-999.0,54,-99.99,,,0.00,weatherlink.com 1.10,2013-03-22 17:09:00,
2013-03-22 13:24:00,36.2,19.0,30.04,West,277,6.0,-999.0,51,-99.99,,,0.00,weatherlink.com 1.10,2013-03-22 17:24:00,
2013-03-22 13:39:00,36.7,19.0,30.04,West,271,9.0,-999.0,49,-99.99,,,0.00,weatherlink.com 1.10,2013-03-22 17:39:00,
2013-03-22 13:54:00,37.1,19.0,30.03,WSW,251,9.0,-999.0,48,-99.99,,,0.00,weatherlink.com 1.10,2013-03-22 17:54:00,
2013-03-22 14:09:00,38.3,20.0,30.03,West,279,1.0,-999.0,47,-99.99,,,0.00,weatherlink.com 1.10,2013-03-22 18:09:00,
2013-03-22 14:24:00,38.1,19.0,30.02,WSW,254,1.0,-999.0,47,-99.99,,,0.00,weatherlink.com 1.10,2013-03-22 18:24:00,
2013-03-22 14:39:00,38.8,20.0,30.02,WSW,238,3.0,-999.0,47,-99.99,,,0.00,weatherlink.com 1.10,2013-03-22 18:39:00,
2013-03-22 14:54:00,39.4,20.0,30.02,WSW,252,11.0,-999.0,45,-99.99,,,0.00,weatherlink.com 1.10,2013-03-22 18:54:00,
2013-03-22 15:10:00,39.0,19.0,30.01,West,276,0.0,-999.0,45,-99.99,,,0.00,weatherlink.com 1.10,2013-03-22 19:10:00,
2013-03-22 15:25:00,40.2,19.0,30.01,West,279,7.0,-999.0,43,-99.99,,,0.00,weatherlink.com 1.10,2013-03-22 19:25:00,
2013-03-22 15:40:00,39.8,19.0,30.00,West,274,3.0,-999.0,44,-99.99,,,0.00,weatherlink.com 1.10,2013-03-22 19:40:00,
2013-03-22 15:55:00,41.0,20.0,30.00,WSW,257,2.0,-999.0,43,-99.99,,,0.00,weatherlink.com 1.10,2013-03-22 19:55:00,
2013-03-22 16:10:00,40.5,19.0,29.99,NW,313,6.0,-999.0,42,-99.99,,,0.00,weatherlink.com 1.10,2013-03-22 20:10:00,
2013-03-22 16:25:00,40.6,18.0,29.99,West,277,2.0,-999.0,41,-99.99,,,0.00,weatherlink.com 1.10,2013-03-22 20:25:00,
2013-03-22 16:40:00,41.1,19.0,29.99,NW,325,3.0,-999.0,41,-99.99,,,0.00,weatherlink.com 1.10,2013-03-22 20:40:00,
2013-03-22 16:55:00,41.6,19.0,29.99,WNW,302,0.0,-999.0,40,-99.99,,,0.00,weatherlink.com 1.10,2013-03-22 20:55:00,
2013-03-22 17:10:00,40.9,19.0,29.99,West,260,2.0,-999.0,41,-99.99,,,0.00,weatherlink.com 1.10,2013-03-22 21:10:00,
2013-03-22 17:25:00,40.6,20.0,29.99,NW,314,1.0,-999.0,43,-99.99,,,0.00,weatherlink.com 1.10,2013-03-22 21:25:00,
2013-03-22 17:40:00,40.2,19.0,29.99,NW,317,0.0,-999.0,42,-99.99,,,0.00,weatherlink.com 1.10,2013-03-22 21:40:00,
2013-03-22 17:55:00,40.4,19.0,29.99,NW,313,0.0,-999.0,43,-99.99,,,0.00,weatherlink.com 1.10,2013-03-22 21:55:00,
2013-03-22 18:11:00,39.8,19.0,30.00,NNW,331,0.0,-999.0,43,-99.99,,,0.00,weatherlink.com 1.10,2013-03-22 22:11:00,
2013-03-22 18:26:00,39.7,18.0,30.00,NNW,339,1.0,-999.0,41,-99.99,,,0.00,weatherlink.com 1.10,2013-03-22 22:26:00,
2013-03-22 19:11:00,38.3,16.0,30.01,NW,323,2.0,-999.0,41,-99.99,,,0.00,weatherlink.com 1.10,2013-03-22 23:11:00,
2013-03-22 19:26:00,37.1,16.0,30.02,NW,324,0.0,-999.0,43,-99.99,,,0.00,weatherlink.com 1.10,2013-03-22 23:26:00,
2013-03-22 19:41:00,35.8,16.0,30.02,NW,311,2.0,-999.0,44,-99.99,,,0.00,weatherlink.com 1.10,2013-03-22 23:41:00,
2013-03-22 19:56:00,34.8,16.0,30.03,NW,325,0.0,-999.0,47,-99.99,,,0.00,weatherlink.com 1.10,2013-03-22 23:56:00,
2013-03-22 20:11:00,34.0,17.0,30.03,NW,311,3.0,-999.0,51,-99.99,,,0.00,weatherlink.com 1.10,2013-03-23 00:11:00,
2013-03-22 20:26:00,33.5,18.0,30.03,NW,319,0.0,-999.0,53,-99.99,,,0.00,weatherlink.com 1.10,2013-03-23 00:26:00,
2013-03-22 20:41:00,32.8,18.0,30.04,NW,319,0.0,-999.0,55,-99.99,,,0.00,weatherlink.com 1.10,2013-03-23 00:41:00,
2013-03-22 21:12:00,31.9,18.0,30.04,NW,319,0.0,-999.0,56,-99.99,,,0.00,weatherlink.com 1.10,2013-03-23 01:12:00,
2013-03-22 21:27:00,31.6,17.0,30.03,NW,319,0.0,-999.0,56,-99.99,,,0.00,weatherlink.com 1.10,2013-03-23 01:27:00,
2013-03-22 21:42:00,31.5,17.0,30.03,NW,319,0.0,-999.0,56,-99.99,,,0.00,weatherlink.com 1.10,2013-03-23 01:42:00,
2013-03-22 21:57:00,31.2,17.0,30.03,NW,319,0.0,-999.0,57,-99.99,,,0.00,weatherlink.com 1.10,2013-03-23 01:57:00,
2013-03-22 22:12:00,30.8,17.0,30.03,NW,319,0.0,-999.0,58,-99.99,,,0.00,weatherlink.com 1.10,2013-03-23 02:12:00,
2013-03-22 22:27:00,30.5,18.0,30.04,NW,319,0.0,-999.0,59,-99.99,,,0.00,weatherlink.com 1.10,2013-03-23 02:27:00,
2013-03-22 22:42:00,30.1,18.0,30.04,NW,319,0.0,-999.0,61,-99.99,,,0.00,weatherlink.com 1.10,2013-03-23 02:42:00,
2013-03-22 22:57:00,29.9,19.0,30.05,NW,319,0.0,-999.0,63,-99.99,,,0.00,weatherlink.com 1.10,2013-03-23 02:57:00,
2013-03-22 23:12:00,29.7,19.0,30.05,NW,319,0.0,-999.0,65,-99.99,,,0.00,weatherlink.com 1.10,2013-03-23 03:12:00,
2013-03-22 23:27:00,29.4,19.0,30.06,NW,318,0.0,-999.0,65,-99.99,,,0.00,weatherlink.com 1.10,2013-03-23 03:27:00,
2013-03-22 23:42:00,29.0,19.0,30.06,NW,319,0.0,-999.0,67,-99.99,,,0.00,weatherlink.com 1.10,2013-03-23 03:42:00,
2013-03-22 23:57:00,28.7,20.0,30.06,NW,319,0.0,-999.0,69,-99.99,,,0.00,weatherlink.com 1.10,2013-03-23 03:57:00,